Location: Newark
(13.6797°N, 8.5297°E)
Time: 06:03:23
(UTC+00:00)

Courier 1B Rocket - Pass Details

Date: 27 January 2020
Orbit: 920 x 1202 km, 28.2° (Epoch: 19 February)

Event Time Altitude Azimuth Distance (km) Brightness Sun altitude
Rises 16:22:10 0° 295° (WNW) 3,663 8.7 13.1°
Reaches altitude 10° 16:24:52 10° 294° (WNW) 2,682 8.1 12.5°
Maximum altitude 16:31:18 80° 208° (SSW) 943 5.3 11.1°
Drops below altitude 10° 16:37:31 10° 121° (ESE) 2,600 6.9 9.7°
Sets 16:40:06 0° 120° (ESE) 3,545 7.6 9.1°
